Time,TemperatureF,DewpointF,PressureIn,WindDirection,WindDirectionDegrees,WindSpeedMPH,WindSpeedGustMPH,Humidity,HourlyPrecipIn,Conditions,Clouds,dailyrainin,SoftwareType,DateUTC
2013-04-04 00:00:00,51.4,40.4,30.22,East,96,1.0,3.0,66,0.00,,,0.00,Wunderground v.1.15,2013-04-04 04:00:00,
2013-04-04 00:05:00,51.4,40.4,30.22,East,86,2.0,3.0,66,0.00,,,0.00,Wunderground v.1.15,2013-04-04 04:05:00,
2013-04-04 00:10:00,51.3,40.3,30.23,ENE,77,2.0,2.0,66,0.00,,,0.00,Wunderground v.1.15,2013-04-04 04:10:00,
2013-04-04 00:20:00,51.2,40.6,30.23,ENE,78,1.0,1.0,67,0.00,,,0.00,Wunderground v.1.15,2013-04-04 04:20:00,
2013-04-04 00:25:00,51.1,40.5,30.23,ENE,78,0.0,2.0,67,0.00,,,0.00,Wunderground v.1.15,2013-04-04 04:25:00,
2013-04-04 00:35:00,51.2,41.0,30.23,East,87,1.0,2.0,68,0.00,,,0.00,Wunderground v.1.15,2013-04-04 04:35:00,
2013-04-04 00:40:00,51.3,41.1,30.22,East,93,1.0,1.0,68,0.00,,,0.00,Wunderground v.1.15,2013-04-04 04:40:00,
2013-04-04 00:50:00,51.3,40.7,30.22,East,94,3.0,3.0,67,0.00,,,0.00,Wunderground v.1.15,2013-04-04 04:50:00,
2013-04-04 00:55:00,51.3,40.7,30.22,East,88,3.0,3.0,67,0.00,,,0.00,Wunderground v.1.15,2013-04-04 04:55:00,
2013-04-04 01:05:00,51.3,40.7,30.22,East,94,2.0,3.0,67,0.00,,,0.00,Wunderground v.1.15,2013-04-04 05:05:00,
2013-04-04 01:10:00,51.2,41.0,30.22,East,92,2.0,2.0,68,0.00,,,0.00,Wunderground v.1.15,2013-04-04 05:10:00,
2013-04-04 01:20:00,51.2,41.0,30.21,ESE,111,2.0,2.0,68,0.00,,,0.00,Wunderground v.1.15,2013-04-04 05:20:00,
2013-04-04 01:30:00,51.2,41.4,30.21,ESE,103,2.0,2.0,69,0.00,,,0.00,Wunderground v.1.15,2013-04-04 05:30:00,
2013-04-04 01:35:00,51.1,41.7,30.21,East,80,1.0,2.0,70,0.00,,,0.00,Wunderground v.1.15,2013-04-04 05:35:00,
2013-04-04 01:45:00,50.9,41.5,30.20,East,87,2.0,3.0,70,0.00,,,0.00,Wunderground v.1.15,2013-04-04 05:45:00,
2013-04-04 01:50:00,51.0,41.6,30.20,ENE,70,3.0,3.0,70,0.00,,,0.00,Wunderground v.1.15,2013-04-04 05:50:00,
2013-04-04 02:00:00,50.6,41.2,30.20,East,79,2.0,2.0,70,0.00,,,0.00,Wunderground v.1.15,2013-04-04 06:00:00,
2013-04-04 02:05:00,50.5,41.4,30.20,East,79,2.0,2.0,71,0.00,,,0.00,Wunderground v.1.15,2013-04-04 06:05:00,
2013-04-04 02:15:00,50.1,41.8,30.19,East,79,1.0,5.0,73,0.00,,,0.00,Wunderground v.1.15,2013-04-04 06:15:00,
2013-04-04 02:20:00,50.2,41.9,30.19,NE,55,2.0,2.0,73,0.00,,,0.00,Wunderground v.1.15,2013-04-04 06:20:00,
2013-04-04 02:30:00,50.1,42.1,30.18,NE,51,1.0,2.0,74,0.00,,,0.00,Wunderground v.1.15,2013-04-04 06:30:00,
2013-04-04 02:35:00,50.0,42.0,30.19,NE,42,2.0,5.0,74,0.00,,,0.00,Wunderground v.1.15,2013-04-04 06:35:00,
2013-04-04 02:45:00,49.8,41.8,30.18,NNE,32,3.0,4.0,74,0.00,,,0.00,Wunderground v.1.15,2013-04-04 06:45:00,
2013-04-04 02:50:00,49.7,41.7,30.18,NE,40,3.0,5.0,74,0.00,,,0.00,Wunderground v.1.15,2013-04-04 06:50:00,
2013-04-04 02:55:00,49.7,41.7,30.18,NE,49,4.0,5.0,74,0.00,,,0.00,Wunderground v.1.15,2013-04-04 06:55:00,
2013-04-04 03:05:00,49.4,41.5,30.18,NE,44,3.0,4.0,74,0.00,,,0.00,Wunderground v.1.15,2013-04-04 07:05:00,
2013-04-04 03:10:00,49.3,41.4,30.18,NNE,30,3.0,5.0,74,0.00,,,0.00,Wunderground v.1.15,2013-04-04 07:10:00,
2013-04-04 03:20:00,49.2,41.6,30.18,NE,42,2.0,3.0,75,0.00,,,0.00,Wunderground v.1.15,2013-04-04 07:20:00,
2013-04-04 03:30:00,49.0,41.8,30.18,NE,40,2.0,2.0,76,0.00,,,0.00,Wunderground v.1.15,2013-04-04 07:30:00,
2013-04-04 03:40:00,49.1,41.9,30.18,NE,38,2.0,5.0,76,0.00,,,0.00,Wunderground v.1.15,2013-04-04 07:40:00,
2013-04-04 03:45:00,49.1,41.9,30.18,NE,37,3.0,5.0,76,0.00,,,0.00,Wunderground v.1.15,2013-04-04 07:45:00,
2013-04-04 03:55:00,49.3,42.1,30.17,NE,36,3.0,5.0,76,0.00,,,0.00,Wunderground v.1.15,2013-04-04 07:55:00,
2013-04-04 04:00:00,49.3,42.1,30.17,NE,44,3.0,3.0,76,0.00,,,0.00,Wunderground v.1.15,2013-04-04 08:00:00,
2013-04-04 04:10:00,49.4,42.5,30.17,ENE,78,3.0,7.0,77,0.00,,,0.00,Wunderground v.1.15,2013-04-04 08:10:00,
2013-04-04 04:20:00,49.6,42.7,30.17,NE,50,4.0,4.0,77,0.00,,,0.00,Wunderground v.1.15,2013-04-04 08:20:00,
2013-04-04 04:30:00,49.7,42.8,30.17,East,90,4.0,8.0,77,0.00,,,0.00,Wunderground v.1.15,2013-04-04 08:30:00,
2013-04-04 04:40:00,49.7,42.8,30.17,ENE,72,3.0,3.0,77,0.00,,,0.00,Wunderground v.1.15,2013-04-04 08:40:00,
2013-04-04 04:45:00,49.8,42.9,30.17,ENE,70,4.0,4.0,77,0.00,,,0.00,Wunderground v.1.15,2013-04-04 08:45:00,
2013-04-04 04:55:00,49.8,43.2,30.18,NE,43,2.0,3.0,78,0.00,,,0.00,Wunderground v.1.15,2013-04-04 08:55:00,
2013-04-04 05:00:00,49.7,43.1,30.18,NE,49,3.0,3.0,78,0.00,,,0.00,Wunderground v.1.15,2013-04-04 09:00:00,
2013-04-04 05:10:00,49.7,43.1,30.18,NE,43,2.0,2.0,78,0.00,,,0.00,Wunderground v.1.15,2013-04-04 09:10:00,
2013-04-04 05:20:00,49.6,43.0,30.17,NE,40,2.0,3.0,78,0.00,,,0.00,Wunderground v.1.15,2013-04-04 09:20:00,
2013-04-04 05:25:00,49.6,43.0,30.18,ENE,63,2.0,3.0,78,0.00,,,0.00,Wunderground v.1.15,2013-04-04 09:25:00,
2013-04-04 05:35:00,49.6,43.0,30.17,ENE,60,2.0,2.0,78,0.00,,,0.00,Wunderground v.1.15,2013-04-04 09:35:00,
2013-04-04 05:45:00,49.7,42.8,30.17,NE,53,3.0,4.0,77,0.00,,,0.00,Wunderground v.1.15,2013-04-04 09:45:00,
2013-04-04 06:05:00,49.7,43.5,30.17,ENE,67,3.0,4.0,79,0.00,,,0.00,Wunderground v.1.15,2013-04-04 10:05:00,
2013-04-04 06:15:00,49.1,43.5,30.17,NE,46,2.0,3.0,81,0.00,,,0.00,Wunderground v.1.15,2013-04-04 10:15:00,
2013-04-04 06:20:00,49.0,43.7,30.17,East,80,3.0,3.0,82,0.00,,,0.00,Wunderground v.1.15,2013-04-04 10:20:00,
2013-04-04 06:30:00,49.1,43.5,30.16,ENE,71,4.0,4.0,81,0.00,,,0.00,Wunderground v.1.15,2013-04-04 10:30:00,
2013-04-04 06:35:00,49.2,43.6,30.17,NE,54,5.0,5.0,81,0.00,,,0.00,Wunderground v.1.15,2013-04-04 10:35:00,
2013-04-04 06:45:00,49.5,43.3,30.17,ENE,65,4.0,7.0,79,0.00,,,0.00,Wunderground v.1.15,2013-04-04 10:45:00,
2013-04-04 06:50:00,49.6,43.4,30.17,ENE,62,4.0,4.0,79,0.00,,,0.00,Wunderground v.1.15,2013-04-04 10:50:00,
2013-04-04 07:00:00,49.7,42.1,30.17,ENE,59,6.0,6.0,75,0.00,,,0.00,Wunderground v.1.15,2013-04-04 11:00:00,
2013-04-04 07:05:00,49.8,41.8,30.17,East,88,6.0,6.0,74,0.00,,,0.00,Wunderground v.1.15,2013-04-04 11:05:00,
2013-04-04 07:15:00,49.9,41.2,30.18,NE,56,5.0,7.0,72,0.00,,,0.00,Wunderground v.1.15,2013-04-04 11:15:00,
2013-04-04 07:20:00,50.0,41.0,30.17,East,95,6.0,6.0,71,0.00,,,0.00,Wunderground v.1.15,2013-04-04 11:20:00,
2013-04-04 07:30:00,50.4,41.0,30.18,ENE,78,6.0,7.0,70,0.00,,,0.00,Wunderground v.1.15,2013-04-04 11:30:00,
2013-04-04 07:35:00,50.4,41.0,30.18,East,84,6.0,7.0,70,0.00,,,0.00,Wunderground v.1.15,2013-04-04 11:35:00,
2013-04-04 07:45:00,50.7,41.3,30.18,NE,55,7.0,7.0,70,0.00,,,0.00,Wunderground v.1.15,2013-04-04 11:45:00,
2013-04-04 07:50:00,50.7,42.0,30.18,East,95,6.0,13.0,72,0.00,,,0.00,Wunderground v.1.15,2013-04-04 11:50:00,
2013-04-04 08:00:00,50.0,42.7,30.18,ENE,71,7.0,10.0,76,0.00,,,0.00,Wunderground v.1.15,2013-04-04 12:00:00,
2013-04-04 08:10:00,49.4,43.5,30.19,ENE,69,4.0,4.0,80,0.00,,,0.00,Wunderground v.1.15,2013-04-04 12:10:00,
2013-04-04 08:15:00,49.1,43.8,30.19,NNE,32,3.0,4.0,82,0.00,,,0.00,Wunderground v.1.15,2013-04-04 12:15:00,
2013-04-04 08:25:00,48.8,44.2,30.18,NE,35,4.0,5.0,84,0.00,,,0.00,Wunderground v.1.15,2013-04-04 12:25:00,
2013-04-04 08:35:00,48.6,44.6,30.19,NE,44,5.0,10.0,86,0.00,,,0.00,Wunderground v.1.15,2013-04-04 12:35:00,
2013-04-04 08:40:00,48.5,44.8,30.18,ENE,72,4.0,4.0,87,0.00,,,0.00,Wunderground v.1.15,2013-04-04 12:40:00,
2013-04-04 08:50:00,48.5,45.1,30.19,NE,36,5.0,5.0,88,0.00,,,0.00,Wunderground v.1.15,2013-04-04 12:50:00,
2013-04-04 09:00:00,48.5,45.4,30.18,NE,45,4.0,4.0,89,0.00,,,0.00,Wunderground v.1.15,2013-04-04 13:00:00,
2013-04-04 09:10:00,48.5,45.4,30.19,ENE,69,5.0,5.0,89,0.00,,,0.00,Wunderground v.1.15,2013-04-04 13:10:00,
2013-04-04 09:15:00,48.5,45.4,30.19,NE,52,6.0,7.0,89,0.00,,,0.00,Wunderground v.1.15,2013-04-04 13:15:00,
2013-04-04 09:25:00,48.5,45.7,30.18,ENE,59,5.0,5.0,90,0.00,,,0.00,Wunderground v.1.15,2013-04-04 13:25:00,
2013-04-04 09:30:00,48.6,45.8,30.18,East,79,5.0,5.0,90,0.00,,,0.00,Wunderground v.1.15,2013-04-04 13:30:00,
2013-04-04 09:40:00,48.6,46.1,30.17,ENE,74,5.0,5.0,91,0.00,,,0.00,Wunderground v.1.15,2013-04-04 13:40:00,
2013-04-04 09:45:00,48.4,45.6,30.17,ENE,61,5.0,8.0,90,0.00,,,0.00,Wunderground v.1.15,2013-04-04 13:45:00,
2013-04-04 09:55:00,48.3,45.8,30.16,East,80,6.0,6.0,91,0.00,,,0.00,Wunderground v.1.15,2013-04-04 13:55:00,
2013-04-04 10:05:00,48.1,45.6,30.16,ENE,58,6.0,6.0,91,0.00,,,0.00,Wunderground v.1.15,2013-04-04 14:05:00,
2013-04-04 10:15:00,47.8,45.3,30.16,NE,34,6.0,8.0,91,0.00,,,0.00,Wunderground v.1.15,2013-04-04 14:15:00,
2013-04-04 10:25:00,47.6,45.1,30.16,NE,45,5.0,8.0,91,0.00,,,0.00,Wunderground v.1.15,2013-04-04 14:25:00,
2013-04-04 10:35:00,47.2,44.7,30.16,NNE,22,6.0,7.0,91,0.00,,,0.00,Wunderground v.1.15,2013-04-04 14:35:00,
2013-04-04 10:40:00,47.1,44.6,30.15,NE,51,6.0,12.0,91,0.00,,,0.00,Wunderground v.1.15,2013-04-04 14:40:00,
2013-04-04 10:50:00,46.8,44.3,30.15,ENE,76,7.0,7.0,91,0.00,,,0.00,Wunderground v.1.15,2013-04-04 14:50:00,
2013-04-04 10:55:00,46.7,44.2,30.14,ENE,59,7.0,10.0,91,0.00,,,0.00,Wunderground v.1.15,2013-04-04 14:55:00,
2013-04-04 11:05:00,46.7,44.2,30.14,ENE,61,6.0,7.0,91,0.00,,,0.00,Wunderground v.1.15,2013-04-04 15:05:00,
2013-04-04 11:15:00,46.4,43.9,30.14,East,79,8.0,9.0,91,0.00,,,0.00,Wunderground v.1.15,2013-04-04 15:15:00,
2013-04-04 11:25:00,46.5,44.0,30.13,ENE,69,6.0,8.0,91,0.00,,,0.00,Wunderground v.1.15,2013-04-04 15:25:00,
2013-04-04 11:30:00,46.5,44.0,30.13,NNE,13,6.0,6.0,91,0.00,,,0.00,Wunderground v.1.15,2013-04-04 15:30:00,
2013-04-04 11:40:00,46.6,44.1,30.12,ENE,76,7.0,12.0,91,0.00,,,0.00,Wunderground v.1.15,2013-04-04 15:40:00,
2013-04-04 11:50:00,46.7,44.2,30.11,ENE,72,8.0,8.0,91,0.00,,,0.00,Wunderground v.1.15,2013-04-04 15:50:00,
2013-04-04 11:55:00,46.8,44.3,30.11,ENE,74,7.0,13.0,91,0.00,,,0.00,Wunderground v.1.15,2013-04-04 15:55:00,
2013-04-04 12:05:00,46.7,44.2,30.10,ENE,74,9.0,11.0,91,0.00,,,0.00,Wunderground v.1.15,2013-04-04 16:05:00,
2013-04-04 12:15:00,46.8,44.3,30.10,East,89,7.0,10.0,91,0.00,,,0.00,Wunderground v.1.15,2013-04-04 16:15:00,
2013-04-04 12:25:00,46.9,44.7,30.09,ENE,69,7.0,8.0,92,0.00,,,0.00,Wunderground v.1.15,2013-04-04 16:25:00,
2013-04-04 12:30:00,47.1,44.9,30.08,NE,56,7.0,11.0,92,0.00,,,0.00,Wunderground v.1.15,2013-04-04 16:30:00,
2013-04-04 12:35:00,47.2,45.0,30.08,East,98,8.0,11.0,92,0.00,,,0.00,Wunderground v.1.15,2013-04-04 16:35:00,
2013-04-04 12:45:00,47.4,45.5,30.07,East,92,7.0,7.0,93,0.00,,,0.00,Wunderground v.1.15,2013-04-04 16:45:00,
2013-04-04 12:50:00,47.7,45.8,30.06,East,101,7.0,7.0,93,0.00,,,0.00,Wunderground v.1.15,2013-04-04 16:50:00,
2013-04-04 13:00:00,47.9,46.0,30.06,ENE,76,7.0,7.0,93,0.00,,,0.00,Wunderground v.1.15,2013-04-04 17:00:00,
2013-04-04 13:05:00,48.1,46.2,30.06,NE,45,6.0,7.0,93,0.00,,,0.00,Wunderground v.1.15,2013-04-04 17:05:00,
2013-04-04 13:15:00,48.6,46.7,30.06,East,80,8.0,10.0,93,0.00,,,0.00,Wunderground v.1.15,2013-04-04 17:15:00,
2013-04-04 13:20:00,48.8,46.9,30.05,ENE,65,8.0,11.0,93,0.00,,,0.00,Wunderground v.1.15,2013-04-04 17:20:00,
2013-04-04 13:30:00,49.3,47.4,30.04,East,92,8.0,8.0,93,0.00,,,0.00,Wunderground v.1.15,2013-04-04 17:30:00,
2013-04-04 13:35:00,49.5,47.6,30.03,ESE,105,8.0,9.0,93,0.00,,,0.00,Wunderground v.1.15,2013-04-04 17:35:00,
2013-04-04 13:45:00,50.0,48.1,30.03,ENE,61,7.0,10.0,93,0.00,,,0.00,Wunderground v.1.15,2013-04-04 17:45:00,
2013-04-04 13:50:00,50.2,48.5,30.03,ENE,61,8.0,13.0,94,0.00,,,0.00,Wunderground v.1.15,2013-04-04 17:50:00,
2013-04-04 14:00:00,50.6,48.7,30.03,ENE,78,8.0,10.0,93,0.00,,,0.00,Wunderground v.1.15,2013-04-04 18:00:00,
2013-04-04 14:10:00,51.0,49.3,30.03,East,91,11.0,11.0,94,0.00,,,0.00,Wunderground v.1.15,2013-04-04 18:10:00,
2013-04-04 14:20:00,51.3,49.3,30.02,East,81,8.0,8.0,93,0.00,,,0.00,Wunderground v.1.15,2013-04-04 18:20:00,
2013-04-04 14:25:00,51.4,49.4,30.02,ENE,70,6.0,8.0,93,0.00,,,0.00,Wunderground v.1.15,2013-04-04 18:25:00,
2013-04-04 14:35:00,51.4,49.7,30.01,NE,49,6.0,7.0,94,0.00,,,0.00,Wunderground v.1.15,2013-04-04 18:35:00,
2013-04-04 14:40:00,51.4,49.4,30.01,NNE,13,5.0,5.0,93,0.00,,,0.00,Wunderground v.1.15,2013-04-04 18:40:00,
2013-04-04 14:50:00,51.4,49.4,30.01,East,82,5.0,5.0,93,0.00,,,0.00,Wunderground v.1.15,2013-04-04 18:50:00,
2013-04-04 14:55:00,51.5,49.8,30.01,East,95,5.0,9.0,94,0.00,,,0.00,Wunderground v.1.15,2013-04-04 18:55:00,
2013-04-04 15:05:00,51.6,49.9,29.98,East,91,9.0,9.0,94,0.00,,,0.00,Wunderground v.1.15,2013-04-04 19:05:00,
2013-04-04 15:10:00,51.7,50.0,29.96,ESE,110,10.0,10.0,94,0.00,,,0.00,Wunderground v.1.15,2013-04-04 19:10:00,
2013-04-04 15:20:00,51.9,50.2,29.96,ENE,74,9.0,13.0,94,0.00,,,0.00,Wunderground v.1.15,2013-04-04 19:20:00,
2013-04-04 15:25:00,51.9,50.2,29.96,ENE,71,8.0,13.0,94,0.00,,,0.00,Wunderground v.1.15,2013-04-04 19:25:00,
2013-04-04 15:40:00,52.0,50.3,29.96,East,83,8.0,8.0,94,0.00,,,0.00,Wunderground v.1.15,2013-04-04 19:40:00,
2013-04-04 15:50:00,52.2,50.5,29.95,East,86,8.0,11.0,94,0.00,,,0.00,Wunderground v.1.15,2013-04-04 19:50:00,
2013-04-04 15:55:00,52.2,50.5,29.95,NE,36,7.0,11.0,94,0.00,,,0.00,Wunderground v.1.15,2013-04-04 19:55:00,
2013-04-04 16:05:00,52.3,50.6,29.94,ENE,69,7.0,8.0,94,0.00,,,0.00,Wunderground v.1.15,2013-04-04 20:05:00,
2013-04-04 16:10:00,52.4,50.7,29.93,East,83,7.0,13.0,94,0.00,,,0.00,Wunderground v.1.15,2013-04-04 20:10:00,
2013-04-04 16:20:00,52.5,50.8,29.92,East,83,8.0,8.0,94,0.00,,,0.00,Wunderground v.1.15,2013-04-04 20:20:00,
2013-04-04 16:25:00,52.6,50.9,29.91,East,83,9.0,9.0,94,0.00,,,0.00,Wunderground v.1.15,2013-04-04 20:25:00,
2013-04-04 16:35:00,52.8,51.1,29.91,East,85,8.0,13.0,94,0.00,,,0.00,Wunderground v.1.15,2013-04-04 20:35:00,
2013-04-04 16:40:00,53.0,51.3,29.90,ENE,78,7.0,7.0,94,0.00,,,0.00,Wunderground v.1.15,2013-04-04 20:40:00,
2013-04-04 16:50:00,53.5,51.8,29.89,ENE,64,7.0,7.0,94,0.00,,,0.00,Wunderground v.1.15,2013-04-04 20:50:00,
2013-04-04 17:00:00,53.9,52.5,29.88,East,79,8.0,14.0,95,0.00,,,0.00,Wunderground v.1.15,2013-04-04 21:00:00,
2013-04-04 17:10:00,54.3,52.6,29.87,East,79,10.0,10.0,94,0.00,,,0.00,Wunderground v.1.15,2013-04-04 21:10:00,
2013-04-04 17:20:00,54.4,52.7,29.88,NNE,28,6.0,7.0,94,0.00,,,0.00,Wunderground v.1.15,2013-04-04 21:20:00,
2013-04-04 17:25:00,54.4,52.7,29.87,ENE,60,6.0,11.0,94,0.00,,,0.00,Wunderground v.1.15,2013-04-04 21:25:00,
2013-04-04 17:35:00,54.6,52.9,29.86,ENE,77,5.0,10.0,94,0.00,,,0.00,Wunderground v.1.15,2013-04-04 21:35:00,
2013-04-04 17:40:00,54.7,53.3,29.86,NE,54,5.0,5.0,95,0.00,,,0.00,Wunderground v.1.15,2013-04-04 21:40:00,
2013-04-04 17:50:00,55.1,53.7,29.86,NE,40,6.0,6.0,95,0.00,,,0.00,Wunderground v.1.15,2013-04-04 21:50:00,
2013-04-04 17:55:00,55.4,54.0,29.85,NE,53,6.0,12.0,95,0.00,,,0.00,Wunderground v.1.15,2013-04-04 21:55:00,
2013-04-04 18:05:00,55.8,54.4,29.84,ENE,72,9.0,12.0,95,0.00,,,0.00,Wunderground v.1.15,2013-04-04 22:05:00,
2013-04-04 18:10:00,55.7,54.3,29.84,NE,51,9.0,9.0,95,0.00,,,0.00,Wunderground v.1.15,2013-04-04 22:10:00,
2013-04-04 18:20:00,55.5,53.8,29.84,NE,45,6.0,6.0,94,0.00,,,0.00,Wunderground v.1.15,2013-04-04 22:20:00,
2013-04-04 18:30:00,55.2,53.8,29.83,ENE,63,6.0,6.0,95,0.00,,,0.00,Wunderground v.1.15,2013-04-04 22:30:00,
2013-04-04 18:40:00,55.0,53.6,29.83,NNE,28,5.0,5.0,95,0.00,,,0.00,Wunderground v.1.15,2013-04-04 22:40:00,
2013-04-04 18:50:00,54.8,53.1,29.82,NE,49,6.0,9.0,94,0.00,,,0.00,Wunderground v.1.15,2013-04-04 22:50:00,
2013-04-04 19:00:00,54.7,53.3,29.80,NE,45,8.0,8.0,95,0.00,,,0.00,Wunderground v.1.15,2013-04-04 23:00:00,
2013-04-04 19:05:00,54.6,52.9,29.80,NNE,19,7.0,8.0,94,0.00,,,0.00,Wunderground v.1.15,2013-04-04 23:05:00,
2013-04-04 19:15:00,54.4,53.0,29.81,North,5,6.0,6.0,95,0.00,,,0.00,Wunderground v.1.15,2013-04-04 23:15:00,
2013-04-04 19:25:00,54.1,52.4,29.81,NNE,15,4.0,7.0,94,0.00,,,0.00,Wunderground v.1.15,2013-04-04 23:25:00,
2013-04-04 19:35:00,54.0,52.6,29.82,NE,53,4.0,4.0,95,0.00,,,0.00,Wunderground v.1.15,2013-04-04 23:35:00,
2013-04-04 19:40:00,54.0,52.6,29.81,North,360,4.0,4.0,95,0.00,,,0.00,Wunderground v.1.15,2013-04-04 23:40:00,
2013-04-04 19:50:00,53.7,52.3,29.81,NNE,25,6.0,6.0,95,0.00,,,0.00,Wunderground v.1.15,2013-04-04 23:50:00,
2013-04-04 19:55:00,53.7,52.0,29.81,NE,38,6.0,6.0,94,0.00,,,0.00,Wunderground v.1.15,2013-04-04 23:55:00,
2013-04-04 20:00:00,53.5,51.8,29.80,NE,36,6.0,8.0,94,0.00,,,0.00,Wunderground v.1.15,2013-04-05 00:00:00,
2013-04-04 20:10:00,53.3,51.6,29.79,NE,40,6.0,6.0,94,0.00,,,0.00,Wunderground v.1.15,2013-04-05 00:10:00,
2013-04-04 20:20:00,53.1,51.4,29.79,North,11,5.0,9.0,94,0.00,,,0.00,Wunderground v.1.15,2013-04-05 00:20:00,
2013-04-04 20:25:00,53.0,51.3,29.79,North,355,5.0,9.0,94,0.00,,,0.00,Wunderground v.1.15,2013-04-05 00:25:00,
2013-04-04 20:35:00,52.6,50.9,29.80,NE,50,6.0,9.0,94,0.00,,,0.00,Wunderground v.1.15,2013-04-05 00:35:00,
2013-04-04 20:45:00,52.3,50.6,29.79,NNE,22,6.0,6.0,94,0.00,,,0.00,Wunderground v.1.15,2013-04-05 00:45:00,
2013-04-04 20:55:00,52.1,50.4,29.80,NE,36,5.0,6.0,94,0.00,,,0.00,Wunderground v.1.15,2013-04-05 00:55:00,
2013-04-04 21:05:00,51.8,50.1,29.80,NNE,14,6.0,6.0,94,0.00,,,0.00,Wunderground v.1.15,2013-04-05 01:05:00,
2013-04-04 21:15:00,51.8,50.1,29.83,West,271,6.0,7.0,94,0.00,,,0.00,Wunderground v.1.15,2013-04-05 01:15:00,
2013-04-04 21:25:00,51.7,50.0,29.82,NNE,33,5.0,5.0,94,0.00,,,0.00,Wunderground v.1.15,2013-04-05 01:25:00,
2013-04-04 21:30:00,51.6,49.9,29.82,NNW,336,4.0,4.0,94,0.00,,,0.00,Wunderground v.1.15,2013-04-05 01:30:00,
2013-04-04 21:40:00,51.1,49.4,29.81,North,360,4.0,4.0,94,0.00,,,0.00,Wunderground v.1.15,2013-04-05 01:40:00,
2013-04-04 21:45:00,50.8,49.1,29.81,North,5,3.0,4.0,94,0.00,,,0.00,Wunderground v.1.15,2013-04-05 01:45:00,
2013-04-04 21:55:00,50.5,49.1,29.81,North,5,4.0,4.0,95,0.00,,,0.00,Wunderground v.1.15,2013-04-05 01:55:00,
2013-04-04 22:00:00,50.3,48.6,29.81,North,355,4.0,4.0,94,0.00,,,0.00,Wunderground v.1.15,2013-04-05 02:00:00,
2013-04-04 22:10:00,50.0,48.6,29.81,North,355,3.0,3.0,95,0.00,,,0.00,Wunderground v.1.15,2013-04-05 02:10:00,
2013-04-04 22:15:00,49.8,48.4,29.82,NW,325,4.0,4.0,95,0.00,,,0.00,Wunderground v.1.15,2013-04-05 02:15:00,
2013-04-04 22:25:00,49.6,47.9,29.82,North,9,3.0,4.0,94,0.00,,,0.00,Wunderground v.1.15,2013-04-05 02:25:00,
2013-04-04 22:30:00,49.6,48.2,29.82,NW,325,3.0,3.0,95,0.00,,,0.00,Wunderground v.1.15,2013-04-05 02:30:00,
2013-04-04 22:40:00,49.2,47.5,29.82,North,355,4.0,5.0,94,0.00,,,0.00,Wunderground v.1.15,2013-04-05 02:40:00,
2013-04-04 22:45:00,49.1,47.4,29.81,North,355,4.0,5.0,94,0.00,,,0.00,Wunderground v.1.15,2013-04-05 02:45:00,
2013-04-04 22:55:00,48.9,47.5,29.82,NNW,330,4.0,5.0,95,0.00,,,0.00,Wunderground v.1.15,2013-04-05 02:55:00,
2013-04-04 23:05:00,48.6,47.2,29.82,NNW,330,4.0,7.0,95,0.00,,,0.00,Wunderground v.1.15,2013-04-05 03:05:00,
2013-04-04 23:10:00,48.5,47.1,29.82,NW,325,5.0,5.0,95,0.00,,,0.00,Wunderground v.1.15,2013-04-05 03:10:00,
2013-04-04 23:20:00,48.3,46.9,29.81,North,350,5.0,5.0,95,0.00,,,0.00,Wunderground v.1.15,2013-04-05 03:20:00,
2013-04-04 23:25:00,48.1,46.7,29.81,NNW,345,5.0,5.0,95,0.00,,,0.00,Wunderground v.1.15,2013-04-05 03:25:00,
2013-04-04 23:35:00,47.9,46.5,29.81,NNW,343,4.0,5.0,95,0.00,,,0.00,Wunderground v.1.15,2013-04-05 03:35:00,
2013-04-04 23:45:00,47.6,46.2,29.83,NW,319,5.0,11.0,95,0.00,,,0.00,Wunderground v.1.15,2013-04-05 03:45:00,
2013-04-04 23:50:00,47.6,46.2,29.83,NW,325,5.0,5.0,95,0.00,,,0.00,Wunderground v.1.15,2013-04-05 03:50:00,